This is the latest recevied weather packets stored in our database for station/object LU2DKV-10. If no packets are shown the sender has not sent any weather packets the latest 1 day(s).
| Time | Temp. | Humidity | Pressure | Rain* | Wind** | Luminosity | Snow |
|---|---|---|---|---|---|---|---|
| 1836274171 | 17.22° C | 90% | 1015 hPa | - | 0 m/s | 0 W/m² | - |
| 1778034554 | 19.44° C | 91% | 1013 hPa | - | 0 m/s | 0 W/m² | - |
| 1778032732 | 19.44° C | 90% | 1013 hPa | - | 0 m/s | 0 W/m² | - |
| 1778030910 | 20° C | 89% | 1013 hPa | - | 0 m/s | 0 W/m² | - |
| 1778029088 | 20° C | 89% | 1013 hPa | - | 0 m/s | 0 W/m² | - |
| 1778027266 | 20° C | 89% | 1013 hPa | - | 0 m/s | 0 W/m² | - |
| 1778025444 | 20° C | 91% | 1013 hPa | - | 0 m/s | 0 W/m² | - |
| 1778023622 | 20° C | 92% | 1013 hPa | - | 0 m/s | 0 W/m² | - |
| 1778021800 | 20.56° C | 90% | 1013 hPa | - | 0 m/s | 0 W/m² | - |
| 1778019978 | 20.56° C | 89% | 1013 hPa | - | 0 m/s | 0 W/m² | - |
| 1778018156 | 20.56° C | 89% | 1013 hPa | - | 0 m/s | 0 W/m² | - |
| 1778016334 | 20.56° C | 88% | 1012 hPa | - | 0 m/s | 0 W/m² | - |
| 1778014512 | 21.11° C | 87% | 1012 hPa | - | 0 m/s | 0 W/m² | - |
| 1778012689 | 21.11° C | 86% | 1012 hPa | - | 0 m/s | 0 W/m² | - |
| 1778010868 | 21.11° C | 84% | 1012 hPa | - | 0 m/s | 0 W/m² | - |
| 1778009046 | 21.67° C | 82% | 1012 hPa | - | 0 m/s | 0 W/m² | - |
| 1778007223 | 21.67° C | 82% | 1012 hPa | - | 0 m/s | 0 W/m² | - |
| 1778005401 | 21.67° C | 82% | 1012 hPa | - | 0 m/s | 0 W/m² | - |
| 1778003579 | 21.67° C | 81% | 1012 hPa | - | 0 m/s | 0 W/m² | - |
| 1778001757 | 21.67° C | 82% | 1013 hPa | - | 0 m/s | 0 W/m² | - |
| 1777999936 | 21.67° C | 80% | 1013 hPa | - | 0 m/s | 0 W/m² | - |
| 1777998113 | 21.67° C | 81% | 1013 hPa | - | 0 m/s | 0 W/m² | - |
| 1777996292 | 20.56° C | 81% | 1013 hPa | - | 0 m/s | 0 W/m² | - |
| 1777994469 | 20° C | 83% | 1013 hPa | - | 0 m/s | 0 W/m² | - |
| 1777992647 | 18.89° C | 86% | 1014 hPa | - | 0 m/s | 0 W/m² | - |
* Rain since midnight (hover to see other rain measurements)
** Current wind speed in m/s (hover to see current wind gust speed)